Flag for Switzerland Weather past 2 weeks in Biel, Switzerland

Now
31 °F

Chilly.


Feels Like: 31 °F
Forecast: 30 / 46 °F
Wind: 1 mph from Northeast

Location: Grenchen

Current Time: Dec 21, 2014 at 10:07:23 PM

Latest Report: Dec 21, 2014 at 9:00 PM


Visibility: N/A

Pressure: 30.63 "Hg

Humidity: 97%

Dew point: 31 °F

Location of BielLocation

Historic Weather in Biel — Graph

°F

Biel temperature yesterday

Maximum temperature yesterday: 49 °F (at 2:00 PM)
Minimum temperature yesterday: 39 °F (at 10:00 PM)
Average temperature yesterday: 45 °F

Past Weeks' High & Low Weather Summary

 TemperatureHumidityPressure
High53 °F (Dec 19, 1:00 PM)100% (Dec 10, 2:00 AM)30.64 "Hg (Dec 10, 2:00 AM)
Low27 °F (Dec 10, 5:00 AM)58% (Dec 20, 8:00 PM)29.91 "Hg (Dec 12, 4:00 PM)
Average41 °F89%30.20 "Hg
* Reported Dec 6 8:00 PM — Dec 21 8:00 PM, Biel, Weather by CustomWeather, © 2014

Note: Actual official high and low records may vary slightly from our data, if they occured in-between our weather recording intervals... More about our weather records

Advertising

Biel weather history for previous 24 hours

 ConditionsComfort  
Time TempWeatherWind HumidityBarometerVisibility
8:00 PM
Dec 21
33 °FChilly.2 mph95%30.62 "HgN/A
7:00 PM35 °FChilly.1 mph90%30.61 "HgN/A
6:00 PM39 °FChilly.5 mph81%30.59 "HgN/A
5:00 PM41 °FQuite cool.1 mph78%30.57 "HgN/A
4:00 PM42 °FQuite cool.6 mph76%30.57 "HgN/A
3:00 PM45 °FQuite cool.5 mph68%30.57 "HgN/A
2:00 PM44 °FQuite cool.2 mph69%30.58 "HgN/A
1:00 PM43 °FQuite cool.2 mph71%30.60 "HgN/A
12:00 PM41 °FQuite cool.No wind76%30.60 "HgN/A
11:00 AM38 °FChilly.2 mph84%30.63 "HgN/A
10:00 AM35 °FChilly.2 mph93%30.63 "HgN/A
9:00 AM32 °FChilly.1 mph97%30.64 "HgN/A
8:00 AM32 °FChilly.3 mph97%30.63 "HgN/A
7:00 AM34 °FChilly.3 mph94%30.61 "HgN/A
6:00 AM35 °FChilly.5 mph90%30.62 "HgN/A
5:00 AM40 °FQuite cool.10 mph74%30.59 "HgN/A
4:00 AM38 °FChilly.6 mph83%30.59 "HgN/A
3:00 AM39 °FChilly.6 mph79%30.59 "HgN/A
2:00 AM40 °FChilly.6 mph79%30.58 "HgN/A
1:00 AM40 °FQuite cool.2 mph73%30.57 "HgN/A
12:00 AM40 °FQuite cool.2 mph72%30.56 "HgN/A
11:00 PM
Dec 20
41 °FQuite cool.10 mph67%30.54 "HgN/A
10:00 PM39 °FChilly.8 mph72%30.53 "HgN/A
Weather by CustomWeather, © 2014

See weather overviewHow to use our weather pages